DELTA 1 DEB, 13538

Orbit data source: Space-Track

DELTA 1 DEB, 13538 is space debris in SSO originally from a launch on Thu, 29 Jul 1976 UTC launched from the Air Force Western Test Range (AFWTR). Debris objects in space refer to the collection of defunct objects orbiting the Earth. Examples of debris include non-operational satellites, rocket bodies, and fragments generated from explosions, collisions, or faulty payload assembly.

Loading next visibility...
Identifier
13538, 1976-077EL
Orbit
SSO
Country
Flag of USUS
Related business
Manufacturer
Unknown
Mission
Spacecraft
Bus & Motor
Unknown
Mass
Unknown
Launch date (UTC)
1976-07-29 (50 years ago)
Launch vehicle
Unknown
Launch site
Air Force Western Test Range (AFWTR)
Object type
Payload
Rocket body
Debris
Shape & HBR
Unknown shape, 0.1 m
Radar Cross Section
Small (<0.1 m²)

Expand to show TLE details & history
Last TLE update: 17 hours ago

TLE from 17 hours ago
0 DELTA 1 DEB
1 13538U 76077EL  26104.47072954  .00000026  00000-0  63650-3 0  9999
2 13538 102.0238  94.1124 0106806 207.3732 306.6600 12.22128876 38308
Epoch: 2026-04-14T11:17Z
TLE epoch observation values (Epoch: 2026-04-14T11:17:51.032Z)
Latitude
26.3534°
Longitude
-91.96963°
Altitude
1,535.963 km
Speed
7.123 km/s
True Right ascension
18h 40m 33s
True Declination
26° 13' 49"
Sunlit
Object was in daylight at epoch
Visualization orbit readout
Latitude
Unknown
Longitude
Unknown
Altitude
Unknown
Speed
Unknown
Apparent Right ascension
Unknown
Apparent Declination
Unknown
Sunlit
N/A
Visualization observer readout
Local Sidereal Time
10:31:21
Azimuth
Unknown
Elevation
Unknown
Doppler factor
Unknown
Orbital elements
Apogee altitude
1,665.889 km
Perigee altitude
1,495.875 km
Semi-major axis
7,959.019 km
Eccentricity
0.01068
Inclination
102.0238°
RAAN
94.1124°
Arg. of periapsis
207.3732°
True anomaly
305.67035°
Mean anomaly
306.66°
Eccentric anomaly
306.16596°
Mean motion
3.05671 °/min
Orbital period
117.77 mins
BSTAR
0.0006365
Loading maneuver chart data...
Computing Atmospheric mass density...
Loading historical data...
Loading historical data...
Loading historical data...
Loading historical data...
Loading historical data...
Loading historical data...
Loading historical data...

Documentation

Showing up to 5 results
|